Madison, WI

11:12 PM CDT on September 27, 2016 (GMT -0500)
Dane County Regional-Truax

Weather History for KMSN - April, 2014

Change the Weather History Date:

Saturday, April 26, 2014

  Actual Average Record
Temperature  
Mean Temperature 45 °F 51 °F  
Max Temperature 54 °F 62 °F 84 °F (1962)
Min Temperature 36 °F 40 °F 25 °F (1980)
Degree Days  
Heating Degree Days 20 15  
Month to date heating degree days 505 504  
Since 1 July heating degree days 7765 6953  
Cooling Degree Days 0 0  
Month to date cooling degree days 0 0  
Year to date cooling degree days 0 0  
Moisture  
Dew Point 32 °F    
Average Humidity 61    
Maximum Humidity 76    
Minimum Humidity 46    
Precipitation  
Precipitation 0.00 in 0.11 in 1.00 in (1995)
Month to date precipitation 3.96 2.93  
Year to date precipitation 7.11 7.81  
Snow  
Snow 0.00 in 0.10 in T in (1950)
Month to date snowfall 1.0 2.5  
Since 1 July snowfall 59.2 50.6  
Snow Depth 0.00 in    
Sea Level Pressure  
Sea Level Pressure 30.00 in    
Wind  
Wind Speed 13 mph (NE)    
Max Wind Speed 21 mph    
Max Gust Speed 26 mph    
Visibility 10 miles    
Events      
T = Trace of Precipitation, MM = Missing Value Source: NWS Daily Summary

Daily Weather History Graph

Daily Weather History Graph

Search for Another Location

Airport or City:

Trip Planner

Search our weather history database for the weather conditions in past years. The results will help you decide how hot, cold, wet, or windy it might be!

Date:

Astronomy

Apr. 26, 2014 Rise Set
Actual Time 5:58 AM CDT 7:52 PM CDT
Civil Twilight 5:27 AM CDT 8:23 PM CDT
Nautical Twilight 4:50 AM CDT 9:01 PM CDT
Astronomical Twilight 4:09 AM CDT 9:42 PM CDT
Moon 4:27 AM CDT (4/26) 5:17 PM CDT (4/26)
Length of Visible Light 14h 56m
Length of Day
13h 54m
Waning Crescent, 8% of the Moon is Illuminated
Apr 26
Waning Crescent
Apr 29
New
May 6
First Quarter
May 14
Full
May 21
Last Quarter

Hourly Weather History & Observations

Time (CDT) Temp. Windchill Dew Point Humidity Pressure Visibility Wind Dir Wind Speed Gust Speed Precip Events Conditions
12:53 AM 46.9 °F - 37.0 °F 68% 29.87 in 10.0 mi North 15.0 mph - N/A   Clear
1:53 AM 43.0 °F 38.2 °F 33.1 °F 68% 29.88 in 10.0 mi North 8.1 mph - N/A   Clear
2:53 AM 42.1 °F 37.7 °F 30.9 °F 65% 29.91 in 10.0 mi NNW 6.9 mph - N/A   Clear
3:53 AM 39.9 °F 37.8 °F 30.9 °F 70% 29.93 in 10.0 mi NNW 3.5 mph - N/A   Clear
4:53 AM 37.9 °F 33.5 °F 30.0 °F 73% 29.95 in 10.0 mi North 5.8 mph - N/A   Clear
5:53 AM 37.9 °F 32.7 °F 30.0 °F 73% 29.98 in 10.0 mi North 6.9 mph - N/A   Clear
6:53 AM 37.9 °F 31.5 °F 30.9 °F 76% 29.99 in 10.0 mi North 9.2 mph - N/A   Clear
7:53 AM 41.0 °F 33.1 °F 30.9 °F 67% 30.01 in 10.0 mi NNE 15.0 mph - N/A   Clear
8:53 AM 44.1 °F 37.4 °F 30.9 °F 60% 30.02 in 10.0 mi North 13.8 mph - N/A   Clear
9:53 AM 46.0 °F 41.0 °F 30.9 °F 56% 30.01 in 10.0 mi NE 10.4 mph - N/A   Partly Cloudy
10:53 AM 48.9 °F - 30.9 °F 50% 30.02 in 10.0 mi NNE 12.7 mph 20.7 mph N/A   Scattered Clouds
11:53 AM 50.0 °F - 33.1 °F 52% 30.04 in 10.0 mi ENE 9.2 mph 19.6 mph N/A   Partly Cloudy
12:53 PM 53.1 °F - 34.0 °F 48% 30.04 in 10.0 mi NE 15.0 mph 24.2 mph N/A   Scattered Clouds
1:53 PM 53.1 °F - 34.0 °F 48% 30.04 in 10.0 mi ENE 13.8 mph 24.2 mph N/A   Mostly Cloudy
2:53 PM 53.1 °F - 35.1 °F 50% 30.04 in 10.0 mi NE 18.4 mph 23.0 mph N/A   Mostly Cloudy
3:53 PM 50.0 °F - 34.0 °F 54% 30.02 in 10.0 mi ENE 18.4 mph - N/A   Mostly Cloudy
4:53 PM 51.1 °F - 34.0 °F 52% 30.03 in 10.0 mi ENE 16.1 mph - N/A   Mostly Cloudy
5:53 PM 51.1 °F - 34.0 °F 52% 30.03 in 10.0 mi ENE 16.1 mph - N/A   Mostly Cloudy
6:53 PM 48.0 °F - 34.0 °F 58% 30.03 in 10.0 mi East 13.8 mph - N/A   Mostly Cloudy
7:53 PM 45.0 °F 39.3 °F 33.1 °F 63% 30.04 in 10.0 mi East 11.5 mph - N/A   Mostly Cloudy
8:53 PM 43.0 °F 35.4 °F 30.9 °F 62% 30.06 in 10.0 mi ENE 16.1 mph - N/A   Mostly Cloudy
9:53 PM 42.1 °F 33.6 °F 30.0 °F 62% 30.08 in 10.0 mi ENE 18.4 mph 25.3 mph N/A   Overcast
10:53 PM 41.0 °F 33.5 °F 28.9 °F 62% 30.05 in 10.0 mi ENE 13.8 mph - N/A   Overcast
11:53 PM 41.0 °F 33.9 °F 28.0 °F 60% 30.07 in 10.0 mi ENE 12.7 mph - N/A   Partly Cloudy